Content
SEND FEEDBACK

Daily
Averages
Monthly
Summary
Canada

QUEBEC CITY, QUEBEC


Home > North America > Canada > Quebec
Elevation: 72 meters     Latitude: 46 48N     Longitude: 071 23W

WEATHER
 
SELECT A DAY
Number of Records: 191,829;   Date Range: 6/30/96 - 7/11/14
 
SHARE

PRINT THIS DATA

[ ← Previous Day ]
WEATHER ALMANAC - 9 NOVEMBER, 2013
[ Next Day → ]
[ °F ]   °C
Weather ElementAverageHighLow
Temperature0.9 °C4 °C (1:00 pm)-2 °C (11:00 pm)
Dewpoint-7.1 °C-4.4 °C (7:00 pm)-9 °C (8:00 am)
Humidity53.4 %74 % (11:00 pm)29 % (1:00 pm)
Barometer1017.6 hPa1019.3 hPa (9:00 am)1014.2 hPa (1:00 am)
Wind Speed15.1 km/h29.6 km/h (1:00 am)
Wind Gust37 km/h (5:00 am)
Weather ElementAverage
Visibility34.6 km
Wind DirectionWSW (235.2 °)

Weather ElementTotal
Precipitation---
Heating Degree Days17.3 (Base 18.3)
Averaged from 31 records on 9 November, 2013
WEATHER CONDITIONS BREAKOUT
WIND DIRECTION BREAKOUT
WEATHER BY HOUR - 9 NOVEMBER, 2013
[ °F ]   °C
Local TimeTemperatureDewpointHumidityBarometerVisibilityWind DirectionWind SpeedGust SpeedPrecipitationEventsConditions
1:00 AM1.7 °C-5 °C48 %1014.2 hPaWest (270°)24.1 km/h
1:00 AM1 °C-6 °C60 %1014.2 hPa24.1 kmWest (260°)29.6 km/hMostly Cloudy
2:00 AM1 °C-6 °C60 %1014.9 hPa24.1 kmWest (260°)25.9 km/hMostly Cloudy
3:00 AM1 °C-7 °C56 %1015.9 hPa24.1 kmWSW (250°)22.2 km/h33.3 km/hOvercast
4:00 AM1.1 °C-6.7 °C44 %1016.3 hPaWest (270°)20.4 km/h
4:00 AM1 °C-7 °C56 %1016.3 hPa24.1 kmWest (280°)22.2 km/h33.3 km/hOvercast
5:00 AM0 °C-8 °C55 %1017.3 hPa24.1 kmWest (280°)18.5 km/h37 km/hMostly Cloudy
6:00 AM1 °C-8 °C52 %1017.9 hPa24.1 kmWNW (290°)16.7 km/hMostly Cloudy
7:00 AM0.6 °C-7.8 °C41 %1018.3 hPaWNW (300°)16.7 km/h
7:00 AM1 °C-8 °C52 %1018.6 hPa48.3 kmNW (310°)24.1 km/hMostly Cloudy
8:00 AM0 °C-9 °C51 %1019 hPa48.3 kmWNW (290°)16.7 km/hMostly Cloudy
9:00 AM1 °C-8 °C52 %1019.3 hPa48.3 kmWest (260°)16.7 km/h29.6 km/hMostly Cloudy
10:00 AM1.7 °C-7.8 °C36 %1019 hPaWest (280°)20.4 km/h
10:00 AM2 °C-8 °C48 %1019.3 hPa48.3 kmWest (260°)16.7 km/h31.5 km/hMostly Cloudy
11:00 AM2 °C-8 °C48 %1018.6 hPa48.3 kmWNW (290°)22.2 km/h33.3 km/hMostly Cloudy
12:00 PM3 °C-8 °C45 %1018.3 hPa48.3 kmWSW (250°)16.7 km/hMostly Cloudy
1:00 PM3.9 °C-7.8 °C29 %1017.6 hPaWest (270°)11.1 km/h
1:00 PM4 °C-7 °C45 %1017.9 hPa48.3 kmWSW (240°)24.1 km/hMostly Cloudy
2:00 PM3 °C-8 °C45 %1017.9 hPa48.3 kmWSW (250°)22.2 km/hMostly Cloudy
3:00 PM2 °C-8 °C48 %1017.6 hPa48.3 kmWest (260°)11.1 km/hMostly Cloudy
4:00 PM1.7 °C-8.3 °C34 %1017.6 hPaSW (230°)5.6 km/h
4:00 PM0 °C-8 °C55 %1017.9 hPa48.3 kmSW (230°)9.3 km/hMostly Cloudy
5:00 PM0 °C-7 °C60 %1017.9 hPa24.1 kmSW (220°)11.1 km/hMostly Cloudy
6:00 PM0 °C-7 °C60 %1017.9 hPa24.1 kmSW (230°)7.4 km/hOvercast
7:00 PM-0.6 °C-4.4 °C66 %1017.9 hPaWest (260°)3.7 km/h
7:00 PM0 °C-6 °C64 %1017.9 hPa24.1 kmWSW (250°)3.7 km/hOvercast
8:00 PM0 °C-6 °C64 %1017.9 hPa24.1 kmWest (260°)3.7 km/hOvercast
9:00 PM-1 °C-6 °C69 %1017.6 hPa24.1 kmVariable3.7 km/hOvercast
10:00 PM-1.7 °C-5 °C69 %1016.9 hPaENE (70°)3.7 km/h
10:00 PM-1 °C-6 °C69 %1017.3 hPa24.1 kmENE (70°)9.3 km/hOvercast
11:00 PM-2 °C-6 °C74 %1016.9 hPa24.1 kmNE (50°)7.4 km/hMostly Cloudy
Hourly data recorded from CYQB, located 0 kilometers away from Quebec City, Quebec







STORIES FROM OUR PARTNERS